This demonstration page uses our WeatherBlox Daily Observations layout. Learn more.

Left ArrowRight Arrow

39.51506, -84.39828

Hourly Observations for June 7, 2018

Temp ( °F °C ) Dew Point ( °F °C ) Humidity (%) Winds ( mph kmh ) Pressure ( in mb ) Visibility ( mi km ) Precip ( " mm )
12:15 am 00:15 Clear 58 14.3 53 11.9 86 86 Calm 30.00 1016 10 16 0.00 0.00
12:35 am 00:35 Partly Cloudy 57 13.7 53 11.8 88 88 Calm 30.00 1016 10 16 0.00 0.00
12:55 am 00:55 Clear 56 13.3 53 11.7 90 90 Calm 30.00 1016 10 16 0.00 0.00
1:15 am 01:15 Clear 55 13 53 11.6 91 91 Calm 30.00 1016 10 16 0.00 0.00
1:35 am 01:35 Clear 55 12.9 53 11.7 92 92 Calm 30.00 1016 10 16 0.00 0.00
1:55 am 01:55 Clear 55 12.7 53 11.5 92 92 Calm 30.00 1016 10 16 0.00 0.00
2:15 am 02:15 Clear 55 12.5 53 11.4 93 93 Calm 30.00 1016 10 16 0.00 0.00
2:35 am 02:35 Clear 55 12.7 53 11.5 92 92 Calm 30.00 1016 10 16 0.00 0.00
2:55 am 02:55 Clear 54 12.2 53 11.5 96 96 Calm 30.00 1016 10 16 0.00 0.00
3:15 am 03:15 Clear 54 12.3 52 11.3 94 94 Calm 30.03 1017 10 16 0.00 0.00
3:35 am 03:35 Clear 54 12.2 52 11.3 94 94 Calm 30.03 1017 10 16 0.00 0.00
3:55 am 03:55 Clear 53 11.9 52 11.1 95 95 Calm 30.00 1016 10 16 0.00 0.00
4:15 am 04:15 Clear 54 12.4 53 11.5 94 94 Calm 30.00 1016 10 16 0.00 0.00
4:35 am 04:35 Clear 57 13.7 52 11.1 84 84 SE 5 7 30.00 1016 10 16 0.00 0.00
4:55 am 04:55 Clear 57 13.9 52 11 83 83 SE 6 9 30.03 1017 10 16 0.00 0.00
5:15 am 05:15 Mostly Cloudy 57 14.1 52 11.1 82 82 SE 6 9 30.03 1017 10 16 0.00 0.00
5:35 am 05:35 Clear 57 13.9 52 11.1 83 83 SSE 5 7 30.03 1017 10 16 0.00 0.00
5:55 am 05:55 Clear 57 13.7 52 11 84 84 SSE 3 6 30.03 1017 10 16 0.00 0.00
6:15 am 06:15 Partly Cloudy 57 13.8 52 11.2 84 84 SE 3 6 30.03 1017 10 16 0.00 0.00
6:35 am 06:35 Mostly Cloudy 57 14 52 11.3 84 84 SSE 5 7 30.06 1018 10 16 0.00 0.00
6:55 am 06:55 Partly Cloudy 58 14.2 52 11.3 83 83 S 5 7 30.06 1018 10 16 0.00 0.00
7:15 am 07:15 Partly Cloudy 58 14.4 53 11.4 82 82 S 6 9 30.06 1018 10 16 0.00 0.00
7:35 am 07:35 Sunny 59 15 53 11.6 80 80 SSE 6 9 30.06 1018 10 16 0.00 0.00
7:55 am 07:55 Sunny 60 15.6 53 11.7 78 78 ESE 3 6 30.06 1018 10 16 0.00 0.00
8:15 am 08:15 Sunny 61 16.3 54 12.1 76 76 SE 5 7 30.03 1017 10 16 0.00 0.00
8:35 am 08:35 Sunny 63 17 54 12.4 74 74 SSE 6 9 30.03 1017 10 16 0.00 0.00
8:55 am 08:55 Sunny 64 17.9 55 12.6 71 71 SSE 6 9 30.06 1018 10 16 0.00 0.00
9:15 am 09:15 Partly Cloudy 65 18.6 55 12.9 70 70 S 5 7 30.06 1018 10 16 0.00 0.00
9:35 am 09:35 Partly Cloudy 67 19.6 57 13.9 70 70 SSW 7 11 30.06 1018 10 16 0.00 0.00
9:55 am 09:55 Mostly Cloudy 68 20 57 13.7 67 67 S 5 7 30.06 1018 10 16 0.00 0.00
10:15 am 10:15 Mostly Cloudy 70 20.9 57 13.7 64 64 S 10 17 30.06 1018 10 16 0.00 0.00
10:35 am 10:35 Sunny 71 21.5 57 13.8 62 62 S 8 13 30.06 1018 10 16 0.00 0.00
10:55 am 10:55 Sunny 72 22.2 57 13.7 59 59 S 12 19 30.06 1018 10 16 0.00 0.00
11:15 am 11:15 Sunny 73 22.7 57 13.9 58 58 S 9 15 30.06 1018 10 16 0.00 0.00
11:35 am 11:35 Sunny 74 23.6 59 14.8 58 58 SW 12 19 30.06 1018 10 16 0.00 0.00
11:55 am 11:55 Sunny 76 24.2 58 14.7 55 55 S 9 15 30.06 1018 10 16 0.00 0.00
12:15 pm 12:15 Partly Cloudy 77 24.9 60 15.7 57 57 SSW 8 13 30.06 1018 10 16 0.00 0.00
12:35 pm 12:35 Partly Cloudy 78 25.3 59 15.2 54 54 SSW 7 11 30.06 1018 10 16 0.00 0.00
12:55 pm 12:55 Sunny 79 25.9 61 16 54 54 SSW 9 15 30.06 1018 10 16 0.00 0.00
1:15 pm 13:15 Sunny 79 26.2 60 15.8 53 53 S 10 17 30.03 1017 10 16 0.00 0.00
1:35 pm 13:35 Sunny 80 26.5 61 15.9 52 52 SSE 8 13 30.03 1017 10 16 0.00 0.00
1:55 pm 13:55 Sunny 81 27.2 61 16.3 51 51 SSE 7 11 30.03 1017 10 16 0.00 0.00
2:15 pm 14:15 Sunny 82 27.8 62 16.8 51 51 S 8 13 30.00 1016 10 16 0.00 0.00
2:35 pm 14:35 Sunny 83 28.5 63 17.1 50 50 S 10 17 29.97 1015 10 16 0.00 0.00
2:55 pm 14:55 Sunny 83 28.6 63 17.3 50 50 S 5 7 29.97 1015 10 16 0.00 0.00
3:15 pm 15:15 Sunny 84 28.8 64 17.8 51 51 SW 8 13 29.97 1015 10 16 0.00 0.00
3:35 pm 15:35 Sunny 85 29.3 64 17.9 50 50 SSW 10 17 29.97 1015 10 16 0.00 0.00
3:55 pm 15:55 Sunny 85 29.4 64 17.8 50 50 SW 8 13 29.97 1015 10 16 0.00 0.00
4:15 pm 16:15 Sunny 85 29.6 64 17.7 49 49 S 9 15 29.97 1015 10 16 0.00 0.00
4:35 pm 16:35 Sunny 85 29.6 64 17.8 49 49 SW 6 9 29.97 1015 10 16 0.00 0.00
4:55 pm 16:55 Sunny 86 30 65 18.5 50 50 SSW 10 17 29.97 1015 10 16 0.00 0.00
5:15 pm 17:15 Partly Cloudy 86 29.9 66 18.8 51 51 SW 8 13 29.97 1015 10 16 0.00 0.00
5:35 pm 17:35 Sunny 86 30 65 18.6 50 50 SW 12 19 29.97 1015 10 16 0.00 0.00
5:55 pm 17:55 Sunny 85 29.7 65 18.4 51 51 SW 8 13 29.97 1015 10 16 0.00 0.00
6:15 pm 18:15 Sunny 85 29.4 65 18.3 51 51 WSW 10 17 29.97 1015 10 16 0.00 0.00
6:35 pm 18:35 Sunny 84 29.1 65 18.5 53 53 SW 8 13 29.97 1015 10 16 0.00 0.00
6:55 pm 18:55 Sunny 84 28.9 65 18.1 52 52 SW 10 17 29.97 1015 10 16 0.00 0.00
7:15 pm 19:15 Sunny 83 28.5 65 18.2 54 54 SW 9 15 29.97 1015 10 16 0.00 0.00
7:35 pm 19:35 Sunny 82 27.9 65 18.4 56 56 SW 7 11 30.00 1016 10 16 0.00 0.00
7:55 pm 19:55 Sunny 81 27.2 65 18.3 58 58 SW 7 11 30.00 1016 10 16 0.00 0.00
8:15 pm 20:15 Sunny 80 26.4 65 18.4 62 62 SSW 8 13 30.00 1016 10 16 0.00 0.00
8:35 pm 20:35 Sunny 79 26.3 65 18.5 62 62 SSW 7 11 30.00 1016 10 16 0.00 0.00
8:55 pm 20:55 Sunny 79 25.9 65 18.6 64 64 SSW 6 9 30.00 1016 10 16 0.00 0.00
9:15 pm 21:15 Clear 80 26.7 65 18.4 60 60 S 6 9 30.00 1016 10 16 0.00 0.00
9:35 pm 21:35 Clear 78 25.5 66 18.7 66 66 SW 5 7 30.03 1017 10 16 0.00 0.00
9:55 pm 21:55 Clear 75 23.8 67 19.4 76 76 SW 3 6 30.03 1017 10 16 0.00 0.00
10:15 pm 22:15 Partly Cloudy 75 23.8 67 19.5 77 77 SW 3 6 30.03 1017 10 16 0.00 0.00
10:35 pm 22:35 Partly Cloudy with Nearby Thunderstorms 74 23.1 68 19.9 82 82 SW 5 7 30.06 1018 10 16 0.00 0.00
10:55 pm 22:55 Cloudy 77 25.1 66 19.1 69 69 WNW 13 20 30.09 1019 10 16 0.00 0.00
11:15 pm 23:15 Cloudy with Light Rain 71 21.9 65 18.6 82 82 N 9 15 30.09 1019 10 16 0.00 0.00
11:35 pm 23:35 Cloudy with Light Rain 69 20.7 65 18.5 87 87 N 8 13 30.09 1019 10 16 0.00 0.00
11:55 pm 23:55 Mostly Cloudy with Light Rain 69 20.4 65 18.6 89 89 Calm 30.09 1019 10 16 0.00 0.00

Powered by AerisWeather